Orbital Elements at Epoch 2459200.5 (2020-Dec-17.0) TDB
Reference: JPL 9 (heliocentric ecliptic J2000)
Element | Value | Uncertainty (1-sigma) | Units |
e | .09803221511609489 | 6.9304e-08 | |
a | 2.35095409434904 | 1.7349e-08 | au |
q | 2.120484856843751 | 1.6143e-07 | au |
i | 2.640031551600956 | 8.1668e-06 | deg |
node | 184.9183507925641 | 0.00011229 | deg |
peri | 345.2612599339758 | 0.00011674 | deg |
M | 285.4415158174975 | 3.3603e-05 | deg |
tp | 2459473.183725960774 (2021-Sep-15.68372596) | 0.00012441 | TDB |
period | 1316.632740354404 3.60 | 1.4575e-05 3.99e-08 | d yr |
n | .273424766805584 | 3.0267e-09 | deg/d |
Q | 2.581423331854329 | 1.905e-08 | au |
|
| | Orbit Determination Parameters
Additional Information
|